Terminal Aerodrome Forecast
Issued by NWS Atlanta, GA

Home | Current Version | Previous Version | Text Only | Print | Product List | Glossary On
Versions: 1 2 3 4 5 6 7 8 9 10 11 12 13 14 15 16 17 18 19 20 21 22 23
000
FTUS42 KFFC 210910 AAB
TAFCSG
TAF AMD
KCSG 210910Z 2109/2206 09005KT 6SM BR OVC005
     FM211400 07006KT 6SM BR OVC010
     FM211900 08006KT P6SM VCSH OVC015
     FM220000 08005KT 6SM -SHRA BR OVC020
     FM220300 10005KT 5SM BR OVC007=

USA.gov is the U.S. government's official web portal to all federal, state and local government web resources and services.